Pink Coral — 9HPY9 — position and weather

sailwx.info

Track history (hours):
 
Tides and Currents Weather Stations Pressure Air Temp Water Temp Dewpoint Dewpoint Depression Visibility Wind Speed Wind Dir Waves Ship Positions

Pink Coral

Last reported at 2014-Oct-31 17:33 UTC. Time now 2014-Nov-01 13:22 UTC.
Position N 40°54' E 028°46'.

Length 183 m; draft 11.2 m.

Type: Ship (hazmat cat A). MMSI: 249344000.

Date/timePositionNaut miles runAvg speedWind from/ knotsBaromVisibWave heightAir tempDewpointWater temp
2014-Oct-31 17:33N 40°54' E 028°46'7 6.4
2014-Oct-31 16:29N 40°56' E 028°54'6 6.4
2014-Oct-31 15:31N 41°01' E 028°60'1511.0
2014-Oct-31 14:11N 41°14' E 029°08'711.2
2014-Oct-31 13:33N 41°21' E 029°11'1212.4
2014-Oct-31 12:33N 41°23' E 029°28'3 2.6
2014-Oct-31 11:33N 41°24' E 029°31'2 1.9
2014-Oct-31 10:33N 41°25' E 029°30'2 2.2
2014-Oct-31 09:33N 41°27' E 029°28'2 2.4
2014-Oct-31 08:33N 41°29' E 029°27'2 2.1
2014-Oct-31 07:33N 41°31' E 029°25'9 9.0
2014-Oct-31 06:33N 41°32' E 029°37'27713.6
2014-Oct-30 10:11N 43°38' E 035°13'914.0
2014-Oct-30 09:33N 43°42' E 035°24'1413.8
2014-Oct-30 08:33N 43°48' E 035°41'1413.8
2014-Oct-30 07:32N 43°55' E 035°58'1413.6
2014-Oct-30 06:32N 44°01' E 036°15'1313.5
2014-Oct-30 05:34N 44°06' E 036°32'1413.7
2014-Oct-30 04:33N 44°13' E 036°49'2913.6
2014-Oct-30 02:25N 44°26' E 037°25'1213.9
2014-Oct-30 01:33N 44°31' E 037°40'1110.8
2014-Oct-30 00:34N 44°39' E 037°50'4 3.5
2014-Oct-29 23:33N 44°43' E 037°50'0 0.0
2014-Oct-29 22:30N 44°43' E 037°50'0 0.0
2014-Oct-29 21:33N 44°43' E 037°50'0 0.0
2014-Oct-29 20:30N 44°43' E 037°50'0 0.0
2014-Oct-29 19:33N 44°43' E 037°50'0 0.0
2014-Oct-29 18:33N 44°43' E 037°50'0 0.0
2014-Oct-29 17:33N 44°43' E 037°50'0 0.0
2014-Oct-29 16:30N 44°43' E 037°50'0 0.0
2014-Oct-29 15:33N 44°43' E 037°50'0 0.0
2014-Oct-29 14:33N 44°43' E 037°50'0 0.0
2014-Oct-29 13:31N 44°43' E 037°50'0 0.0
2014-Oct-29 12:31N 44°43' E 037°50'0 0.0
2014-Oct-29 11:31N 44°43' E 037°50'0 0.0
2014-Oct-29 10:28N 44°43' E 037°50'0 0.0
2014-Oct-29 09:31N 44°43' E 037°50'0 0.0
2014-Oct-29 08:25N 44°43' E 037°50'0 0.0
2014-Oct-29 07:31N 44°43' E 037°50'0 0.0
2014-Oct-29 06:28N 44°43' E 037°50'0 0.0
2014-Oct-29 05:31N 44°43' E 037°50'0 0.0
2014-Oct-29 04:28N 44°43' E 037°50'0 0.0
2014-Oct-29 03:31N 44°43' E 037°50'0 0.0
2014-Oct-29 02:31N 44°43' E 037°50'0 0.0
2014-Oct-29 01:31N 44°43' E 037°50'0 0.0
2014-Oct-29 00:31N 44°43' E 037°50'0 0.0
2014-Oct-28 23:31N 44°43' E 037°50'0 0.0
2014-Oct-28 22:31N 44°43' E 037°50'0 0.0
2014-Oct-28 21:31N 44°43' E 037°50'0 0.0
2014-Oct-28 20:31N 44°43' E 037°50'0 0.0
2014-Oct-28 19:31N 44°43' E 037°50'0 0.0
2014-Oct-28 18:31N 44°43' E 037°50'0 0.0
2014-Oct-28 17:31N 44°43' E 037°50'0 0.0
2014-Oct-28 16:31N 44°43' E 037°50'0 0.0
2014-Oct-28 15:31N 44°43' E 037°50'0 0.0
2014-Oct-28 14:31N 44°43' E 037°50'0 0.0
2014-Oct-28 13:31N 44°43' E 037°50'0 0.0
2014-Oct-28 12:32N 44°43' E 037°50'1 0.7
2014-Oct-28 11:33N 44°42' E 037°50'7 6.5
2014-Oct-28 10:33N 44°36' E 037°52'4 4.4
2014-Oct-28 09:33N 44°31' E 037°51'3 3.2
2014-Oct-28 08:33N 44°29' E 037°54'1 0.8
2014-Oct-28 07:33N 44°29' E 037°53'1 0.6
2014-Oct-28 06:33N 44°30' E 037°52'1 0.7
2014-Oct-28 05:33N 44°30' E 037°52'1 1.1
2014-Oct-28 04:33N 44°31' E 037°50'1 1.1
2014-Oct-28 03:33N 44°31' E 037°49'1 0.9
2014-Oct-28 02:33N 44°32' E 037°48'1 0.9
2014-Oct-28 01:33N 44°32' E 037°47'1 0.9
2014-Oct-28 00:33N 44°32' E 037°46'1 0.8
2014-Oct-27 23:33N 44°33' E 037°45'1 0.9
2014-Oct-27 22:33N 44°33' E 037°44'3 2.9
2014-Oct-27 21:33N 44°34' E 037°40'9 9.4
2014-Oct-27 20:33N 44°34' E 037°27'2 1.6
2014-Oct-27 19:33N 44°33' E 037°25'2 2.2
2014-Oct-27 18:33N 44°33' E 037°28'2 1.9
2014-Oct-27 17:33N 44°33' E 037°31'2 1.8
2014-Oct-27 16:33N 44°32' E 037°33'2 1.8
2014-Oct-27 15:33N 44°32' E 037°36'2 1.9
2014-Oct-27 14:33N 44°32' E 037°38'2 1.9
2014-Oct-27 13:33N 44°32' E 037°41'2 1.8
2014-Oct-27 12:33N 44°32' E 037°43'1 1.4
2014-Oct-27 11:33N 44°32' E 037°45'2 1.6
2014-Oct-27 10:33N 44°33' E 037°48'4 3.8
2014-Oct-27 09:33N 44°30' E 037°44'1 0.9
2014-Oct-27 08:33N 44°30' E 037°43'1 1.1
2014-Oct-27 07:33N 44°31' E 037°43'2 2.0
2014-Oct-27 06:33N 44°29' E 037°43'1 1.1
2014-Oct-27 05:33N 44°30' E 037°43'1 1.2
2014-Oct-27 04:33N 44°32' E 037°42'1 1.1
2014-Oct-27 03:33N 44°33' E 037°42'8 8.3
2014-Oct-27 02:33N 44°33' E 037°30'6 5.5
2014-Oct-27 01:33N 44°33' E 037°22'3 2.4
2014-Oct-27 00:29N 44°32' E 037°26'2 2.4
2014-Oct-26 23:33N 44°32' E 037°29'2 2.3
2014-Oct-26 22:33N 44°32' E 037°32'2 2.3
2014-Oct-26 21:33N 44°32' E 037°35'2 2.4
2014-Oct-26 20:33N 44°32' E 037°39'2 2.1
2014-Oct-26 19:33N 44°30' E 037°39'1 1.5
2014-Oct-26 18:33N 44°31' E 037°40'1 1.5
2014-Oct-26 17:33N 44°33' E 037°40'6 6.4
2014-Oct-26 16:33N 44°36' E 037°32'3 3.3
2014-Oct-26 15:33N 44°36' E 037°37'6 5.9
2014-Oct-26 14:33N 44°31' E 037°32'2 1.5
2014-Oct-26 13:33N 44°32' E 037°33'2 1.9
2014-Oct-26 12:33N 44°34' E 037°35'1 0.9
2014-Oct-26 11:33N 44°34' E 037°36'5 5.3
2014-Oct-26 10:33N 44°35' E 037°28'2 2.3
2014-Oct-26 09:33N 44°36' E 037°25'4 3.8
2014-Oct-26 08:33N 44°35' E 037°30'6 0.4
2014-Oct-25 16:26N 44°30' E 037°33'2 2.1
2014-Oct-25 15:33N 44°31' E 037°36'2 2.1
2014-Oct-25 14:33N 44°32' E 037°38'2 2.4
2014-Oct-25 13:33N 44°33' E 037°41'0 0.4
2014-Oct-25 12:33N 44°33' E 037°42'7 6.8
2014-Oct-25 11:33N 44°26' E 037°40'2 1.9
2014-Oct-25 10:33N 44°28' E 037°41'2 1.9
2014-Oct-25 09:33N 44°30' E 037°42'2 1.8
2014-Oct-25 08:33N 44°31' E 037°44'2 2.1
2014-Oct-25 07:33N 44°33' E 037°46'7 7.1
2014-Oct-25 06:33N 44°26' E 037°42'1 1.5
2014-Oct-25 05:33N 44°28' E 037°42'1 1.5
2014-Oct-25 04:33N 44°29' E 037°43'1 1.4
2014-Oct-25 03:33N 44°30' E 037°44'1 1.3
2014-Oct-25 02:33N 44°31' E 037°45'1 1.4
2014-Oct-25 01:33N 44°32' E 037°47'1 0.9
2014-Oct-25 00:33N 44°32' E 037°48'6 5.7
2014-Oct-24 23:33N 44°27' E 037°44'1 1.4
2014-Oct-24 22:33N 44°28' E 037°44'1 1.5
2014-Oct-24 21:33N 44°30' E 037°46'1 1.4
2014-Oct-24 20:33N 44°31' E 037°47'2 1.6
2014-Oct-24 19:33N 44°32' E 037°48'6 5.6
2014-Oct-24 18:33N 44°27' E 037°44'1 1.4
2014-Oct-24 17:33N 44°29' E 037°44'2 1.6
2014-Oct-24 16:33N 44°30' E 037°46'1 1.5
2014-Oct-24 15:33N 44°31' E 037°47'2 1.8
2014-Oct-24 14:33N 44°31' E 037°45'9 9.5
2014-Oct-24 13:33N 44°31' E 037°31'1 1.3
2014-Oct-24 12:33N 44°30' E 037°33'2 2.5
2014-Oct-24 11:33N 44°30' E 037°36'2 2.5
2014-Oct-24 10:33N 44°30' E 037°40'2 2.4
2014-Oct-24 09:33N 44°28' E 037°42'1110.7
2014-Oct-24 08:33N 44°38' E 037°49'5 4.7
2014-Oct-24 07:31N 44°43' E 037°50'0 0.0
2014-Oct-24 06:31N 44°43' E 037°50'0 0.0
2014-Oct-24 04:31N 44°43' E 037°50'0 0.0
2014-Oct-24 03:31N 44°43' E 037°50'0 0.0
2014-Oct-24 02:31N 44°43' E 037°50'0 0.0
2014-Oct-24 01:31N 44°43' E 037°50'0 0.0
2014-Oct-24 00:29N 44°43' E 037°50'0 0.0
2014-Oct-23 23:32N 44°43' E 037°50'0 0.0
2014-Oct-23 22:32N 44°43' E 037°50'0 0.0
2014-Oct-23 21:31N 44°43' E 037°50'0 0.0
2014-Oct-23 20:31N 44°43' E 037°50'0 0.0
2014-Oct-23 19:31N 44°43' E 037°50'0 0.0
2014-Oct-23 18:31N 44°43' E 037°50'0 0.0
2014-Oct-23 17:31N 44°43' E 037°50'0 0.0
2014-Oct-23 16:31N 44°43' E 037°50'0 0.0
2014-Oct-23 15:28N 44°43' E 037°50'0 0.0
2014-Oct-23 14:31N 44°43' E 037°50'0 0.0
2014-Oct-23 13:31N 44°43' E 037°50'0 0.0
2014-Oct-23 12:31N 44°43' E 037°50'0 0.0
2014-Oct-23 11:31N 44°43' E 037°50'0 0.0
2014-Oct-23 10:31N 44°43' E 037°50'0 0.0
2014-Oct-23 09:31N 44°43' E 037°50'4 4.3
2014-Oct-23 08:33N 44°39' E 037°51'8 8.3
2014-Oct-23 07:33N 44°30' E 037°48'1 0.6
2014-Oct-23 06:33N 44°31' E 037°49'1111.1
2014-Oct-23 05:33N 44°26' E 037°35'1212.1
2014-Oct-23 04:33N 44°21' E 037°20'4613.3
2014-Oct-23 01:04N 43°59' E 036°22'1013.4
2014-Oct-23 00:20N 43°55' E 036°10'2513.5
2014-Oct-22 22:29N 43°43' E 035°39'33713.5
2014-Oct-21 21:33N 41°02' E 029°00'9 9.4
2014-Oct-21 20:33N 40°53' E 028°55'6 5.9
2014-Oct-21 19:33N 40°47' E 028°53'1 0.7
2014-Oct-21 18:33N 40°47' E 028°53'  
Track history (hours):
 
Tides and Currents Weather Stations Pressure Air Temp Water Temp Dewpoint Dewpoint Depression Visibility Wind Speed Wind Dir Waves Ship Positions

Pink Coral

Last reported at 2014-Oct-31 17:33 UTC. Time now 2014-Nov-01 13:23 UTC.
Position N 40°54' E 028°46'.

Length 183 m; draft 11.2 m.

Type: Ship (hazmat cat A). MMSI: 249344000.

Date/timePositionNaut miles runAvg speedWind from/ knotsBaromVisibWave heightAir tempDewpointWater temp
2014-Oct-31 17:33N 40°54' E 028°46'7 6.4
2014-Oct-31 16:29N 40°56' E 028°54'6 6.4
2014-Oct-31 15:31N 41°01' E 028°60'1511.0
2014-Oct-31 14:11N 41°14' E 029°08'711.2
2014-Oct-31 13:33N 41°21' E 029°11'1212.4
2014-Oct-31 12:33N 41°23' E 029°28'3 2.6
2014-Oct-31 11:33N 41°24' E 029°31'2 1.9
2014-Oct-31 10:33N 41°25' E 029°30'2 2.2
2014-Oct-31 09:33N 41°27' E 029°28'2 2.4
2014-Oct-31 08:33N 41°29' E 029°27'2 2.1
2014-Oct-31 07:33N 41°31' E 029°25'9 9.0
2014-Oct-31 06:33N 41°32' E 029°37'27713.6
2014-Oct-30 10:11N 43°38' E 035°13'914.0
2014-Oct-30 09:33N 43°42' E 035°24'1413.8
2014-Oct-30 08:33N 43°48' E 035°41'1413.8
2014-Oct-30 07:32N 43°55' E 035°58'1413.6
2014-Oct-30 06:32N 44°01' E 036°15'1313.5
2014-Oct-30 05:34N 44°06' E 036°32'1413.7
2014-Oct-30 04:33N 44°13' E 036°49'2913.6
2014-Oct-30 02:25N 44°26' E 037°25'1213.9
2014-Oct-30 01:33N 44°31' E 037°40'1110.8
2014-Oct-30 00:34N 44°39' E 037°50'4 3.5
2014-Oct-29 23:33N 44°43' E 037°50'0 0.0
2014-Oct-29 22:30N 44°43' E 037°50'0 0.0
2014-Oct-29 21:33N 44°43' E 037°50'0 0.0
2014-Oct-29 20:30N 44°43' E 037°50'0 0.0
2014-Oct-29 19:33N 44°43' E 037°50'0 0.0
2014-Oct-29 18:33N 44°43' E 037°50'0 0.0
2014-Oct-29 17:33N 44°43' E 037°50'0 0.0
2014-Oct-29 16:30N 44°43' E 037°50'0 0.0
2014-Oct-29 15:33N 44°43' E 037°50'0 0.0
2014-Oct-29 14:33N 44°43' E 037°50'0 0.0
2014-Oct-29 13:31N 44°43' E 037°50'0 0.0
2014-Oct-29 12:31N 44°43' E 037°50'0 0.0
2014-Oct-29 11:31N 44°43' E 037°50'0 0.0
2014-Oct-29 10:28N 44°43' E 037°50'0 0.0
2014-Oct-29 09:31N 44°43' E 037°50'0 0.0
2014-Oct-29 08:25N 44°43' E 037°50'0 0.0
2014-Oct-29 07:31N 44°43' E 037°50'0 0.0
2014-Oct-29 06:28N 44°43' E 037°50'0 0.0
2014-Oct-29 05:31N 44°43' E 037°50'0 0.0
2014-Oct-29 04:28N 44°43' E 037°50'0 0.0
2014-Oct-29 03:31N 44°43' E 037°50'0 0.0
2014-Oct-29 02:31N 44°43' E 037°50'0 0.0
2014-Oct-29 01:31N 44°43' E 037°50'0 0.0
2014-Oct-29 00:31N 44°43' E 037°50'0 0.0
2014-Oct-28 23:31N 44°43' E 037°50'0 0.0
2014-Oct-28 22:31N 44°43' E 037°50'0 0.0
2014-Oct-28 21:31N 44°43' E 037°50'0 0.0
2014-Oct-28 20:31N 44°43' E 037°50'0 0.0
2014-Oct-28 19:31N 44°43' E 037°50'0 0.0
2014-Oct-28 18:31N 44°43' E 037°50'0 0.0
2014-Oct-28 17:31N 44°43' E 037°50'0 0.0
2014-Oct-28 16:31N 44°43' E 037°50'0 0.0
2014-Oct-28 15:31N 44°43' E 037°50'0 0.0
2014-Oct-28 14:31N 44°43' E 037°50'0 0.0
2014-Oct-28 13:31N 44°43' E 037°50'0 0.0
2014-Oct-28 12:32N 44°43' E 037°50'1 0.7
2014-Oct-28 11:33N 44°42' E 037°50'7 6.5
2014-Oct-28 10:33N 44°36' E 037°52'4 4.4
2014-Oct-28 09:33N 44°31' E 037°51'3 3.2
2014-Oct-28 08:33N 44°29' E 037°54'1 0.8
2014-Oct-28 07:33N 44°29' E 037°53'1 0.6
2014-Oct-28 06:33N 44°30' E 037°52'1 0.7
2014-Oct-28 05:33N 44°30' E 037°52'1 1.1
2014-Oct-28 04:33N 44°31' E 037°50'1 1.1
2014-Oct-28 03:33N 44°31' E 037°49'1 0.9
2014-Oct-28 02:33N 44°32' E 037°48'1 0.9
2014-Oct-28 01:33N 44°32' E 037°47'1 0.9
2014-Oct-28 00:33N 44°32' E 037°46'1 0.8
2014-Oct-27 23:33N 44°33' E 037°45'1 0.9
2014-Oct-27 22:33N 44°33' E 037°44'3 2.9
2014-Oct-27 21:33N 44°34' E 037°40'9 9.4
2014-Oct-27 20:33N 44°34' E 037°27'2 1.6
2014-Oct-27 19:33N 44°33' E 037°25'2 2.2
2014-Oct-27 18:33N 44°33' E 037°28'2 1.9
2014-Oct-27 17:33N 44°33' E 037°31'2 1.8
2014-Oct-27 16:33N 44°32' E 037°33'2 1.8
2014-Oct-27 15:33N 44°32' E 037°36'2 1.9
2014-Oct-27 14:33N 44°32' E 037°38'2 1.9
2014-Oct-27 13:33N 44°32' E 037°41'2 1.8
2014-Oct-27 12:33N 44°32' E 037°43'1 1.4
2014-Oct-27 11:33N 44°32' E 037°45'2 1.6
2014-Oct-27 10:33N 44°33' E 037°48'4 3.8
2014-Oct-27 09:33N 44°30' E 037°44'1 0.9
2014-Oct-27 08:33N 44°30' E 037°43'1 1.1
2014-Oct-27 07:33N 44°31' E 037°43'2 2.0
2014-Oct-27 06:33N 44°29' E 037°43'1 1.1
2014-Oct-27 05:33N 44°30' E 037°43'1 1.2
2014-Oct-27 04:33N 44°32' E 037°42'1 1.1
2014-Oct-27 03:33N 44°33' E 037°42'8 8.3
2014-Oct-27 02:33N 44°33' E 037°30'6 5.5
2014-Oct-27 01:33N 44°33' E 037°22'3 2.4
2014-Oct-27 00:29N 44°32' E 037°26'2 2.4
2014-Oct-26 23:33N 44°32' E 037°29'2 2.3
2014-Oct-26 22:33N 44°32' E 037°32'2 2.3
2014-Oct-26 21:33N 44°32' E 037°35'2 2.4
2014-Oct-26 20:33N 44°32' E 037°39'2 2.1
2014-Oct-26 19:33N 44°30' E 037°39'1 1.5
2014-Oct-26 18:33N 44°31' E 037°40'1 1.5
2014-Oct-26 17:33N 44°33' E 037°40'6 6.4
2014-Oct-26 16:33N 44°36' E 037°32'3 3.3
2014-Oct-26 15:33N 44°36' E 037°37'6 5.9
2014-Oct-26 14:33N 44°31' E 037°32'2 1.5
2014-Oct-26 13:33N 44°32' E 037°33'2 1.9
2014-Oct-26 12:33N 44°34' E 037°35'1 0.9
2014-Oct-26 11:33N 44°34' E 037°36'5 5.3
2014-Oct-26 10:33N 44°35' E 037°28'2 2.3
2014-Oct-26 09:33N 44°36' E 037°25'4 3.8
2014-Oct-26 08:33N 44°35' E 037°30'6 0.4
2014-Oct-25 16:26N 44°30' E 037°33'2 2.1
2014-Oct-25 15:33N 44°31' E 037°36'2 2.1
2014-Oct-25 14:33N 44°32' E 037°38'2 2.4
2014-Oct-25 13:33N 44°33' E 037°41'0 0.4
2014-Oct-25 12:33N 44°33' E 037°42'7 6.8
2014-Oct-25 11:33N 44°26' E 037°40'2 1.9
2014-Oct-25 10:33N 44°28' E 037°41'2 1.9
2014-Oct-25 09:33N 44°30' E 037°42'2 1.8
2014-Oct-25 08:33N 44°31' E 037°44'2 2.1
2014-Oct-25 07:33N 44°33' E 037°46'7 7.1
2014-Oct-25 06:33N 44°26' E 037°42'1 1.5
2014-Oct-25 05:33N 44°28' E 037°42'1 1.5
2014-Oct-25 04:33N 44°29' E 037°43'1 1.4
2014-Oct-25 03:33N 44°30' E 037°44'1 1.3
2014-Oct-25 02:33N 44°31' E 037°45'1 1.4
2014-Oct-25 01:33N 44°32' E 037°47'1 0.9
2014-Oct-25 00:33N 44°32' E 037°48'6 5.7
2014-Oct-24 23:33N 44°27' E 037°44'1 1.4
2014-Oct-24 22:33N 44°28' E 037°44'1 1.5
2014-Oct-24 21:33N 44°30' E 037°46'1 1.4
2014-Oct-24 20:33N 44°31' E 037°47'2 1.6
2014-Oct-24 19:33N 44°32' E 037°48'6 5.6
2014-Oct-24 18:33N 44°27' E 037°44'1 1.4
2014-Oct-24 17:33N 44°29' E 037°44'2 1.6
2014-Oct-24 16:33N 44°30' E 037°46'1 1.5
2014-Oct-24 15:33N 44°31' E 037°47'2 1.8
2014-Oct-24 14:33N 44°31' E 037°45'9 9.5
2014-Oct-24 13:33N 44°31' E 037°31'1 1.3
2014-Oct-24 12:33N 44°30' E 037°33'2 2.5
2014-Oct-24 11:33N 44°30' E 037°36'2 2.5
2014-Oct-24 10:33N 44°30' E 037°40'2 2.4
2014-Oct-24 09:33N 44°28' E 037°42'1110.7
2014-Oct-24 08:33N 44°38' E 037°49'5 4.7
2014-Oct-24 07:31N 44°43' E 037°50'0 0.0
2014-Oct-24 06:31N 44°43' E 037°50'0 0.0
2014-Oct-24 04:31N 44°43' E 037°50'0 0.0
2014-Oct-24 03:31N 44°43' E 037°50'0 0.0
2014-Oct-24 02:31N 44°43' E 037°50'0 0.0
2014-Oct-24 01:31N 44°43' E 037°50'0 0.0
2014-Oct-24 00:29N 44°43' E 037°50'0 0.0
2014-Oct-23 23:32N 44°43' E 037°50'0 0.0
2014-Oct-23 22:32N 44°43' E 037°50'0 0.0
2014-Oct-23 21:31N 44°43' E 037°50'0 0.0
2014-Oct-23 20:31N 44°43' E 037°50'0 0.0
2014-Oct-23 19:31N 44°43' E 037°50'0 0.0
2014-Oct-23 18:31N 44°43' E 037°50'0 0.0
2014-Oct-23 17:31N 44°43' E 037°50'0 0.0
2014-Oct-23 16:31N 44°43' E 037°50'0 0.0
2014-Oct-23 15:28N 44°43' E 037°50'0 0.0
2014-Oct-23 14:31N 44°43' E 037°50'0 0.0
2014-Oct-23 13:31N 44°43' E 037°50'0 0.0
2014-Oct-23 12:31N 44°43' E 037°50'0 0.0
2014-Oct-23 11:31N 44°43' E 037°50'0 0.0
2014-Oct-23 10:31N 44°43' E 037°50'0 0.0
2014-Oct-23 09:31N 44°43' E 037°50'4 4.3
2014-Oct-23 08:33N 44°39' E 037°51'8 8.3
2014-Oct-23 07:33N 44°30' E 037°48'1 0.6
2014-Oct-23 06:33N 44°31' E 037°49'1111.1
2014-Oct-23 05:33N 44°26' E 037°35'1212.1
2014-Oct-23 04:33N 44°21' E 037°20'4613.3
2014-Oct-23 01:04N 43°59' E 036°22'1013.4
2014-Oct-23 00:20N 43°55' E 036°10'2513.5
2014-Oct-22 22:29N 43°43' E 035°39'33713.5
2014-Oct-21 21:33N 41°02' E 029°00'9 9.4
2014-Oct-21 20:33N 40°53' E 028°55'6 5.9
2014-Oct-21 19:33N 40°47' E 028°53'1 0.7
2014-Oct-21 18:33N 40°47' E 028°53'  

Dump ship's entire track history